Other Public Products
Issued by NWS Grand Forks, ND

Home | Current Version | Previous Version | Text Only | Print | Product List | Glossary Off
Versions: 1 2 3 4 5 6 7 8 9 10 11 12 13 14 15 16 17 18 19 20 21 22 23 24 25 26 27 28 29 30 31 32 33 34 35 36 37 38 39 40 41 42 43 44 45 46 47 48 49 50

807
FPUS83 KFGF 281931
OPUFGF
PRAIRIE TO PINES WEATHER ROUNDUP
NATIONAL WEATHER SERVICE EASTERN NORTH DAKOTA/GRAND FORKS ND
200 PM CDT THU JUL 28 2016

 **SATELLITE DATA USED TO AUGMENT SKY COVER AT AUTOMATED STATIONS**
 *****  WEATHER ACROSS EASTERN NORTH DAKOTA  *****

CITY           SKY/WX    TMP DP  RH WIND       PRES   REMARKS
GRAND FORKS    FAIR      76  58  53 NE7       30.12R
GRAND FORKS AF FAIR      74  57  55 NE7       30.13
GRAND CITY NWS   N/A     75 N/A N/A VRB14       N/A
BUXTON           N/A     77  62  60 N8          N/A
DEVILS LAKE    CLOUDY    69  57  65 NE3       30.16S
FARGO          FAIR      78  62  57 N7        30.08S
WAHPETON ARPT  MOCLDY    75  54  46 CALM      30.08S
$$

 *****  WEATHER ACROSS CENTRAL AND WESTERN NORTH DAKOTA  *****

CITY           SKY/WX    TMP DP  RH WIND       PRES   REMARKS
JAMESTOWN      FAIR      74  61  63 SE5       30.11F
BISMARCK       CLOUDY    71  56  58 NE6       30.15S
MINOT          PTSUNNY   77  53  43 NE9       30.16S
MINOT AFB      FAIR      72  51  48 NE6       30.15
GARRISON         N/A     68  56  65 VRB5      30.17S
WILLISTON      PTSUNNY   74  53  48 VRB6      30.16F
DICKINSON      CLOUDY    62  59  90 E12       30.15F
HETTINGER      CLOUDY    71  59  65 SE10      30.15F
$$

 *****  OTHER OBSERVATIONS NORTHEAST NORTH DAKOTA  *****

CITY           SKY/WX    TMP DP  RH WIND       PRES   REMARKS
WALHALLA       FAIR      72  66  83 NE6       30.15S
LANGDON        FAIR      73  52  46 CALM      30.16F
CAVALIER       FAIR      72  54  53 N8        30.14F
GRAFTON        FAIR      72  55  56 N8G14     30.14F
CANDO          FAIR      72  55  56 CALM      30.18S
FORT TOTTEN      N/A     73  60  63 NE5       29.95S
ROLLA            N/A     68  52  56 N5        30.18
RUGBY          NOT AVBL
 ***** THE ABOVE OBSERVATIONS ARE NON NWS ARE NOT QUALITY
        CONTROLLED AND MAY MIS-REPORT RAIN FOR SNOW...
$$

 *****  OTHER OBSERVATIONS SOUTHEAST NORTH DAKOTA *****

CITY           SKY/WX    TMP DP  RH WIND       PRES   REMARKS
COOPERSTOWN    NOT AVBL
VALLEY CITY    CLOUDY    72  64  78 NE6       30.13S
OAKES            N/A    N/A N/A N/A MISG        N/A
GWINNER        NOT AVBL
SHEYENNE NWR     N/A     80  59  48 SE2       29.95S
BUFFALO          N/A     74  56  53 N5          N/A
WYNDMERE         N/A    N/A N/A N/A SE1         N/A
 ***** THE ABOVE OBSERVATIONS ARE NON NWS ARE NOT QUALITY
       CONTROLLED AND MAY MIS-REPORT RAIN FOR SNOW...
$$

  *****  WEATHER ACROSS NORTHERN MINNESOTA  *****

CITY           SKY/WX    TMP DP  RH WIND       PRES   REMARKS
FLAG ISLAND    FAIR      70  52  52 N3        30.13S
WARROAD        FAIR      72  57  60 NE8       30.14S
ROSEAU         FAIR      72  57  60 NE5       30.12F
HALLOCK        FAIR      72  54  53 N5        30.12F
THF RVR FALLS  PTSUNNY   72  58  61 NW9       30.13F
HALSTAD          N/A     81  59  47 NE7         N/A
FOSSTON        FAIR      75  61  60 NW7       30.11S
BAUDETTE       FAIR      75  57  53 N10       30.12S
WASKISH        FAIR      75  57  53 W6        30.10F
CROOKSTON      FAIR      75  61  60 N8        30.11F
$$
  *****  WEATHER ACROSS CENTRAL AND WEST MINNESOTA  *****

CITY           SKY/WX    TMP DP  RH WIND       PRES   REMARKS
BEMIDJI        FAIR      73  55  53 NE9       30.10S
PARK RAPIDS    FAIR      79  54  41 NE7       30.09F
WADENA         FAIR      73  57  56 E5        30.08F
DETROIT LAKES  FAIR      73  59  60 CALM      30.10F
MOORHEAD       FAIR      77  63  61 N6        30.09S
FERGUS FALLS   FAIR      75  57  53 N3        30.08F
ELBOW LAKE     FAIR      74  56  54 NE7       30.09S
MORRIS MN      FAIR      79  57  47 E3        30.08S
STAPLES        PTSUNNY   73  57  56 E5        30.09S
WHEATON        FAIR      75  63  64 E5        30.10S
$$
  *****  WEATHER ELSEWHERE ACROSS MINNESOTA  *****

CITY           SKY/WX    TMP DP  RH WIND       PRES   REMARKS
DULUTH         FAIR      72  54  53 E15       30.10F
INTRNTL FALLS  FAIR      74  55  51 VRB3      30.11F
ELY            FAIR      73  50  43 NE6       30.10F
CLOQUET        FAIR      70  52  52 E8        30.10F
BRAINERD       FAIR      74  57  55 NE7       30.09F
HIBBING        PTSUNNY   73  54  51 N8        30.09F
ALEXANDRIA     FAIR      75  55  49 VRB7G17   30.10F
SAINT CLOUD    FAIR      74  58  57 NE7G17    30.06F
MINNEAPOLIS    CLOUDY    74  62  66 NE12      30.02F
$$

  *****  WEATHER ACROSS SOUTH DAKOTA  *****

CITY           SKY/WX    TMP DP  RH WIND       PRES   REMARKS
SIOUX FALLS    PTSUNNY   75  63  66 N9        30.05F
BROOKINGS      FAIR      73  60  63 NE13      30.07F
WATERTOWN      FAIR      77  57  50 E10       30.09S
HURON          MOSUNNY   78  60  53 VRB5      30.06F
SISSETON         N/A     75  59  57 VRB5      30.08S
ABERDEEN       MOSUNNY   76  63  64 N5        30.10F
MITCHELL       MOSUNNY   80  58  46 N9        30.06F
PIERRE         PTSUNNY   80  56  43 S12       30.07F
MOBRIDGE       PTSUNNY   75  54  47 NE10      30.10F
RAPID CITY     CLOUDY    69  57  65 NW9       30.15R
$$

  *****  SOME WEATHER IN NEARBY STATES *****

CITY           SKY/WX    TMP DP  RH WIND       PRES   REMARKS
GLASGOW MT     PTSUNNY   72  57  59 CALM      30.17S
GREAT FALLS MT SUNNY     77  47  34 CALM      30.18F
CHEYENNE WY    CLOUDY    64  54  69 NE14G20   30.29S
SCOTTSBLUFF NE SUNNY     72  57  59 E5        30.19R
OMAHA NE       FAIR      84  65  52 N14       30.01S
DES MOINES IA  FAIR      80  65  59 NW9       29.97F
DAVENPORT IA   FAIR      80  69  69 W14       29.89F
CHICAGO IL     LGT RAIN  74  70  87 N7        29.89S FOG
EAU CLAIRE WI  CLOUDY    67  64  90 NE13      30.00F
LA CROSSE WI   LGT RAIN  68  64  87 N9        29.96R
$$

  *****  SOME NATIONAL WEATHER *****

CITY           SKY/WX    TMP DP  RH WIND       PRES   REMARKS
LA GUARDIA NY  FAIR      93  62  35 S12G18    29.84F HX  93
RALEIGH NC     FAIR      96  75  50 SW15      29.88F HX 108
ATLANTA GA     PTSUNNY   88  69  53 W15G24    30.01F HX  92
NEW ORLEANS LA MOSUNNY   94  76  55 S12       30.02F HX 106
OKLAHOMA CITY  PTSUNNY   92  71  50 CALM      29.97F HX  98
ALBUQUERQUE NM MOSUNNY   89  46  22 W3        30.21F
SALT LAKE CITY MOSUNNY   97  33  10 W8        30.09F HX  91
LOS ANGELES CA SUNNY     77  64  64 W10       29.92S
BOISE ID       SUNNY     90  47  22 NW9       30.07F
SEATTLE WA     SUNNY     79  60  52 NW12G17   30.13F
$$

*** WEATHER ACROSS MANITOBA...SASKATCHEWAN AND ONTARIO ***
                ***ONTARIO***

CITY           SKY/WX    TMP DP  RH WIND       PRES   REMARKS
GERALDTON      PTSUNNY   70  54  56 NW5       30.10F
THUNDER BAY    MOSUNNY   73  55  53 E6        30.10S
SIOUX LOOKOUT  MOSUNNY   70  50  49 NW8       30.14
TORONTO        CLOUDY    84  63  48 SE9       29.89F
BIG TROUT LK   SUNNY     70  52  52 S7        30.09S
PICKLE LAKE    MOSUNNY   70  46  43 NW5       30.13F
DRYDEN         SUNNY     70  48  46 VRB3      30.14S
KENORA         MOSUNNY   70  50  49 CALM      30.15S
$$
                *** MANITOBA***

CITY           SKY/WX    TMP DP  RH WIND       PRES   REMARKS
BRANDON        PTSUNNY   73  52  46 NW3       30.16F
DAUPHIN        SUNNY     77  54  44 VRB3      30.12F
ISLAND LAKE    MOSUNNY   75  52  43 CALM      30.09S
PILOT MOUND      N/A     68  52  56 N5          N/A
THE PAS        MOSUNNY   79  61  53 NW7       30.05S
THOMPSON       PTSUNNY   75  59  57 CALM      30.01F THUNDER
WINNIPEG       MOSUNNY   72  52  49 NE6       30.15S
LYNN LAKE      PTSUNNY   73  59  60 MISG      30.05S
CHURCHILL      MOSUNNY   55  50  82 N14       30.08R
GILLAM         PTSUNNY   70  59  68 S8        30.04S
$$
                ***SASKATCHEWAN***

CITY           SKY/WX    TMP DP  RH WIND       PRES   REMARKS
ESTEVAN        MOSUNNY   73  52  46 VRB6      30.18S
KINDERSLEY     MOSUNNY   77  57  50 S7        30.13S
LLOYDMINSTER   MOSUNNY   79  57  47 NW7       30.10F
PRINCE ALBERT  MOSUNNY   82  61  47 SW8       30.07F
REGINA         MOSUNNY   73  55  53 S3        30.16F
YORKTON        SUNNY     77  54  44 W3        30.15F   C1F1C2F2C3F3C4F4C5F5C6F6C7F7C8F8C9F9CaFaCbFbCcFcCdFdCe!



USA.gov is the U.S. government's official web portal to all federal, state and local government web resources and services.